Time,TemperatureF,DewpointF,PressureIn,WindDirection,WindDirectionDegrees,WindSpeedMPH,WindSpeedGustMPH,Humidity,HourlyPrecipIn,Conditions,Clouds,dailyrainin,SolarRadiationWatts/m^2,SoftwareType,DateUTC
2013-09-04 00:00:00,56.0,52.0,-100.00,WSW,247,0.0,-999.0,87,-99.99,,,-99.99,0.000000,,2013-09-04 04:00:00,
2013-09-04 00:44:00,56.0,52.0,-100.00,WSW,247,0.0,-999.0,87,-99.99,,,-99.99,0.000000,,2013-09-04 04:44:00,
2013-09-04 00:54:00,56.0,52.0,-100.00,WSW,247,0.0,-999.0,87,-99.99,,,-99.99,0.000000,,2013-09-04 04:54:00,
2013-09-04 01:00:00,53.0,51.0,-100.00,SW,225,0.0,-999.0,91,-99.99,,,-99.99,0.000000,,2013-09-04 05:00:00,
2013-09-04 01:43:00,53.0,51.0,-100.00,SW,225,0.0,-999.0,91,-99.99,,,-99.99,0.000000,,2013-09-04 05:43:00,
2013-09-04 01:53:00,53.0,51.0,-100.00,SW,225,0.0,-999.0,91,-99.99,,,-99.99,0.000000,,2013-09-04 05:53:00,
2013-09-04 02:00:00,52.0,51.0,-100.00,SW,225,0.0,-999.0,93,-99.99,,,-99.99,0.000000,,2013-09-04 06:00:00,
2013-09-04 02:42:00,52.0,51.0,-100.00,SW,225,0.0,-999.0,93,-99.99,,,-99.99,0.000000,,2013-09-04 06:42:00,
2013-09-04 02:52:00,52.0,51.0,-100.00,SW,225,0.0,-999.0,93,-99.99,,,-99.99,0.000000,,2013-09-04 06:52:00,
2013-09-04 03:00:00,52.0,51.0,-100.00,SW,225,0.0,-999.0,95,-99.99,,,-99.99,0.000000,,2013-09-04 07:00:00,
2013-09-04 03:42:00,52.0,51.0,-100.00,SW,225,0.0,-999.0,95,-99.99,,,-99.99,0.000000,,2013-09-04 07:42:00,
2013-09-04 03:52:00,52.0,51.0,-100.00,SW,225,0.0,-999.0,95,-99.99,,,-99.99,0.000000,,2013-09-04 07:52:00,
2013-09-04 04:00:00,53.0,52.0,-100.00,SW,225,0.0,-999.0,95,-99.99,,,-99.99,0.000000,,2013-09-04 08:00:00,
2013-09-04 04:43:00,53.0,52.0,-100.00,SW,225,0.0,-999.0,95,-99.99,,,-99.99,0.000000,,2013-09-04 08:43:00,
2013-09-04 04:52:00,53.0,52.0,-100.00,SW,225,0.0,-999.0,95,-99.99,,,-99.99,0.000000,,2013-09-04 08:52:00,
2013-09-04 05:00:00,53.0,52.0,-100.00,SW,225,0.0,-999.0,96,-99.99,,,-99.99,0.000000,,2013-09-04 09:00:00,
2013-09-04 05:43:00,53.0,52.0,-100.00,SW,225,0.0,-999.0,96,-99.99,,,-99.99,0.000000,,2013-09-04 09:43:00,
2013-09-04 05:53:00,53.0,52.0,-100.00,SW,225,0.0,-999.0,96,-99.99,,,-99.99,0.000000,,2013-09-04 09:53:00,
2013-09-04 06:00:00,54.0,53.0,-100.00,SW,225,1.0,-999.0,96,-99.99,,,-99.99,0.000000,,2013-09-04 10:00:00,
2013-09-04 06:42:00,54.0,53.0,-100.00,SW,225,1.0,-999.0,96,-99.99,,,-99.99,0.000000,,2013-09-04 10:42:00,
2013-09-04 06:52:00,54.0,53.0,-100.00,SW,225,1.0,-999.0,96,-99.99,,,-99.99,0.000000,,2013-09-04 10:52:00,
2013-09-04 07:00:00,54.0,54.0,-100.00,SW,225,0.0,-999.0,97,-99.99,,,-99.99,0.000000,,2013-09-04 11:00:00,
2013-09-04 07:42:00,54.0,54.0,-100.00,SW,225,0.0,-999.0,97,-99.99,,,-99.99,0.000000,,2013-09-04 11:42:00,
2013-09-04 07:52:00,54.0,54.0,-100.00,SW,225,0.0,-999.0,97,-99.99,,,-99.99,0.000000,,2013-09-04 11:52:00,
2013-09-04 08:00:00,56.0,55.0,-100.00,SW,225,1.0,-999.0,97,-99.99,,,-99.99,48.720001,,2013-09-04 12:00:00,
2013-09-04 08:42:00,56.0,55.0,-100.00,SW,225,1.0,-999.0,97,-99.99,,,-99.99,48.720001,,2013-09-04 12:42:00,
2013-09-04 08:52:00,56.0,55.0,-100.00,SW,225,1.0,-999.0,97,-99.99,,,-99.99,48.720001,,2013-09-04 12:52:00,
2013-09-04 09:00:00,59.0,57.0,-100.00,SW,225,2.0,-999.0,93,-99.99,,,-99.99,201.839996,,2013-09-04 13:00:00,
2013-09-04 09:42:00,59.0,57.0,-100.00,SW,225,2.0,-999.0,93,-99.99,,,-99.99,201.839996,,2013-09-04 13:42:00,
2013-09-04 09:52:00,59.0,57.0,-100.00,SW,225,2.0,-999.0,93,-99.99,,,-99.99,201.839996,,2013-09-04 13:52:00,
2013-09-04 10:00:00,63.0,59.0,-100.00,WSW,247,4.0,-999.0,85,-99.99,,,-99.99,366.559998,,2013-09-04 14:00:00,
2013-09-04 10:42:00,63.0,59.0,-100.00,WSW,247,4.0,-999.0,85,-99.99,,,-99.99,366.559998,,2013-09-04 14:42:00,
2013-09-04 10:52:00,63.0,59.0,-100.00,WSW,247,4.0,-999.0,85,-99.99,,,-99.99,366.559998,,2013-09-04 14:52:00,
2013-09-04 11:00:00,68.0,60.0,-100.00,West,270,6.0,-999.0,74,-99.99,,,-99.99,516.200012,,2013-09-04 15:00:00,
2013-09-04 11:44:00,68.0,60.0,-100.00,West,270,6.0,-999.0,74,-99.99,,,-99.99,516.200012,,2013-09-04 15:44:00,
2013-09-04 11:53:00,68.0,60.0,-100.00,West,270,6.0,-999.0,74,-99.99,,,-99.99,516.200012,,2013-09-04 15:53:00,
2013-09-04 12:00:00,72.0,59.0,-100.00,WSW,247,9.0,-999.0,65,-99.99,,,-99.99,636.840027,,2013-09-04 16:00:00,
2013-09-04 12:43:00,72.0,59.0,-100.00,WSW,247,9.0,-999.0,65,-99.99,,,-99.99,636.840027,,2013-09-04 16:43:00,
2013-09-04 12:53:00,72.0,59.0,-100.00,WSW,247,9.0,-999.0,65,-99.99,,,-99.99,636.840027,,2013-09-04 16:53:00,
2013-09-04 13:00:00,75.0,60.0,-100.00,West,270,8.0,-999.0,58,-99.99,,,-99.99,708.760010,,2013-09-04 17:00:00,
2013-09-04 13:42:00,75.0,60.0,-100.00,West,270,8.0,-999.0,58,-99.99,,,-99.99,708.760010,,2013-09-04 17:42:00,
2013-09-04 13:53:00,75.0,60.0,-100.00,West,270,8.0,-999.0,58,-99.99,,,-99.99,708.760010,,2013-09-04 17:53:00,
2013-09-04 14:00:00,77.0,60.0,-100.00,WSW,247,9.0,-999.0,55,-99.99,,,-99.99,712.239990,,2013-09-04 18:00:00,
2013-09-04 14:42:00,77.0,60.0,-100.00,WSW,247,9.0,-999.0,55,-99.99,,,-99.99,712.239990,,2013-09-04 18:42:00,
2013-09-04 14:52:00,77.0,60.0,-100.00,WSW,247,9.0,-999.0,55,-99.99,,,-99.99,712.239990,,2013-09-04 18:52:00,
2013-09-04 15:00:00,79.0,61.0,-100.00,West,270,8.0,-999.0,56,-99.99,,,-99.99,545.200012,,2013-09-04 19:00:00,
2013-09-04 15:42:00,79.0,61.0,-100.00,West,270,8.0,-999.0,56,-99.99,,,-99.99,545.200012,,2013-09-04 19:42:00,
2013-09-04 15:53:00,79.0,61.0,-100.00,West,270,8.0,-999.0,56,-99.99,,,-99.99,545.200012,,2013-09-04 19:53:00,
2013-09-04 16:00:00,80.0,63.0,-100.00,West,270,8.0,-999.0,56,-99.99,,,-99.99,564.919983,,2013-09-04 20:00:00,
2013-09-04 16:43:00,80.0,63.0,-100.00,West,270,8.0,-999.0,56,-99.99,,,-99.99,564.919983,,2013-09-04 20:43:00,
2013-09-04 16:53:00,80.0,63.0,-100.00,West,270,8.0,-999.0,56,-99.99,,,-99.99,564.919983,,2013-09-04 20:53:00,
2013-09-04 17:00:00,76.0,63.0,-100.00,South,180,7.0,-999.0,65,-99.99,,,-99.99,155.440002,,2013-09-04 21:00:00,
2013-09-04 17:44:00,76.0,63.0,-100.00,South,180,7.0,-999.0,65,-99.99,,,-99.99,155.440002,,2013-09-04 21:44:00,
2013-09-04 17:54:00,76.0,63.0,-100.00,South,180,7.0,-999.0,65,-99.99,,,-99.99,155.440002,,2013-09-04 21:54:00,
2013-09-04 18:00:00,72.0,64.0,-100.00,NE,45,7.0,-999.0,74,-99.99,,,-99.99,309.720001,,2013-09-04 22:00:00,
2013-09-04 18:43:00,72.0,64.0,-100.00,NE,45,7.0,-999.0,74,-99.99,,,-99.99,309.720001,,2013-09-04 22:43:00,
2013-09-04 18:55:00,72.0,64.0,-100.00,NE,45,7.0,-999.0,74,-99.99,,,-99.99,309.720001,,2013-09-04 22:55:00,
2013-09-04 19:00:00,68.0,63.0,-100.00,NNE,22,4.0,-999.0,82,-99.99,,,-99.99,81.199997,,2013-09-04 23:00:00,
2013-09-04 19:42:00,68.0,63.0,-100.00,NNE,22,4.0,-999.0,82,-99.99,,,-99.99,81.199997,,2013-09-04 23:42:00,
2013-09-04 19:52:00,68.0,63.0,-100.00,NNE,22,4.0,-999.0,82,-99.99,,,-99.99,81.199997,,2013-09-04 23:52:00,
2013-09-04 20:00:00,66.0,62.0,-100.00,NE,45,1.0,-999.0,88,-99.99,,,-99.99,39.439999,,2013-09-05 00:00:00,
2013-09-04 20:43:00,66.0,62.0,-100.00,NE,45,1.0,-999.0,88,-99.99,,,-99.99,39.439999,,2013-09-05 00:43:00,
2013-09-04 20:52:00,66.0,62.0,-100.00,NE,45,1.0,-999.0,88,-99.99,,,-99.99,39.439999,,2013-09-05 00:52:00,
2013-09-04 21:00:00,62.0,60.0,-100.00,SE,135,0.0,-999.0,93,-99.99,,,-99.99,2.320000,,2013-09-05 01:00:00,
2013-09-04 21:42:00,62.0,60.0,-100.00,SE,135,0.0,-999.0,93,-99.99,,,-99.99,2.320000,,2013-09-05 01:42:00,
2013-09-04 21:52:00,62.0,60.0,-100.00,SE,135,0.0,-999.0,93,-99.99,,,-99.99,2.320000,,2013-09-05 01:52:00,
2013-09-04 22:00:00,60.0,59.0,-100.00,NW,315,0.0,-999.0,96,-99.99,,,-99.99,0.000000,,2013-09-05 02:00:00,
2013-09-04 22:52:00,60.0,59.0,-100.00,NW,315,0.0,-999.0,96,-99.99,,,-99.99,0.000000,,2013-09-05 02:52:00,
2013-09-04 23:00:00,59.0,58.0,-100.00,NW,315,1.0,-999.0,98,-99.99,,,-99.99,0.000000,,2013-09-05 03:00:00,
2013-09-04 23:45:00,59.0,58.0,-100.00,NW,315,1.0,-999.0,98,-99.99,,,-99.99,0.000000,,2013-09-05 03:45:00,
2013-09-04 23:54:00,59.0,58.0,-100.00,NW,315,1.0,-999.0,98,-99.99,,,-99.99,0.000000,,2013-09-05 03:54:00,